Location: Arboyeti
(42.1122°N, 44.6017°E)
Time: 21:23:47
(UTC+00:00)

Cosmos 389 Rocket - Pass Details

Date: 19 April 2021
Orbit: 441 x 472 km, 81.1° (Epoch: 18 May)

Event Time Altitude Azimuth Distance (km) Brightness Sun altitude
Exits shadow 17:52:16 28° 220° (SW) 906 3.9 -21.2°
Maximum altitude 17:53:50 50° 282° (WNW) 597 3.3 -21.4°
Drops below altitude 10° 17:57:18 10° 359° (N) 1,630 5.7 -21.9°
Sets 17:59:27 0° 5° (N) 2,516 6.7 -22.2°
